Regional Weather Roundup
Issued by NWS Northern Indiana

Home | Current Version | Previous Version | Text Only | Print | Product List | Glossary Off
Versions: 1 2 3 4 5 6 7 8 9 10 11 12 13 14 15 16 17 18 19 20 21 22 23 24 25 26 27 28 29 30 31 32 33 34 35 36 37 38 39 40 41 42 43 44 45 46 47 48 49 50

000
ASUS43 KIWX 281000
RWRIWX

KIWX WEATHER ROUNDUP
NATIONAL WEATHER SERVICE NORTHERN INDIANA
500 AM EST SAT FEB 28 2015

NOTE: "FAIR" INDICATES FEW OR NO CLOUDS BELOW 12,000 FEET WITH NO
SIGNIFICANT WEATHER AND/OR OBSTRUCTIONS TO VISIBILITY.

* THESE STATIONS ARE NOT UNDER NWS QUALITY CONTROL. THEY ALSO MAY NOT
  REPORT WEATHER SUCH AS PRECIPITATION OR FOG.

INZ001>027-281100-
NORTHERN INDIANA

CITY           SKY/WX    TMP DP  RH WIND       PRES   REMARKS
SOUTH BEND     MOCLDY    -6 -12  75 CALM      30.67S
GOSHEN         MOCLDY    -8 -15  71 CALM      30.67S HAZE
ANGOLA*        CLEAR     -9 -17  70 CALM      30.65S
FORT WAYNE     MOCLDY     0  -4  83 CALM      30.69R
PERU/GRISSOM   MOCLDY     1  -4  81 SE5       30.67R WCI  -9

$$
INZ028>050-281100-
CENTRAL INDIANA

CITY           SKY/WX    TMP DP  RH WIND       PRES   REMARKS
LAFAYETTE      PTCLDY     3  -2  79 NE3       30.68S
KOKOMO*        PTCLDY     0  -6  78 CALM      30.68R
MUNCIE*        PTCLDY    -2  -7  79 E3        30.66F
INDIANAPOLIS   MOCLDY     9   1  70 NE6       30.65S WCI  -1

$$
MIZ043>046-050>051-056>058-064>065-071>073-077>080-281100-
SOUTHWEST LOWER MICHIGAN

CITY           SKY/WX    TMP DP  RH WIND       PRES   REMARKS
BATTLE CREEK   CLEAR      2  -5  72 S3        30.65S
BENTON HARBOR  PTCLDY    -5  -7  91 CALM      30.67S
COLDWATER*     MOCLDY   -10 -15  78 CALM      30.65S
HILLSDALE*     PTCLDY     0  -5  80 CALM      30.63S
HOLLAND        CLEAR      2  -3  80 S6        30.66S WCI  -9
GRAND RAPIDS   CLEAR      4  -2  76 S10       30.64S WCI -11
KALAMAZOO        N/A     -5  -9  83 S3        30.65F
STURGIS*       CLOUDY    -4  -8  84 CALM      30.65S
THREE RIVERS*  FAIR      -8 -13  79 CALM      30.67S

$$
OHZ001>008-015>018-024>025-281100-
NORTHWEST OHIO

CITY           SKY/WX    TMP DP  RH WIND       PRES   REMARKS
DEFIANCE       PTCLDY    -6 -10  83 CALM      30.71R
FINDLAY        PTCLDY    -3  -9  75 CALM      30.69R
TOLEDO EXPRESS PTCLDY    -8 -12  83 CALM      30.70S
TOLEDO METCALF PTCLDY    -1  -8  72 S3        30.73R
LIMA           PTCLDY     2  -6  69 S6        30.67S WCI  -9

$$
AND FOR LAKE MICHIGAN COASTAL AND OPEN LAKE BUOY OBSERVATIONS

STATION/POSITION TEMP    WIND        PRES    VSBY  WAVE
                 AIR SEA DIR/SP/G                  HT/PER
                 (F)     (DEG/KT/KT) (MB)    (MI)  (FT/S)
CALUMET HARBOR     3     250/  3/  7 1037.2F
MICHIGAN CITY      3     140/  4/  5   N/A
SAINT JOSEPH       6     140/  5/ 11 1038.6F

$$
&&



USA.gov is the U.S. government's official web portal to all federal, state and local government web resources and services.